Spokane Fairchild, WA
on Friday, November 30, 2012

Friday
Previous Day Next Day
Daily Summary
 ActualAverage (KGEG)Record (KGEG)
Temperature
Mean Temperature °F / °C 30°F / -1°C  
Max Temperature 50°F / 10°C 35°F / 2°C 54°F / 12°C (1903)
Min Temperature 42°F / 6°C 26°F / -3°C -8°F / -22°C (1985)
Degree Days
Heating Degree Days 19 35  
Month to date heating degree days 879  
Since 1 July heating degree days 1667  
Cooling Degree Days 0 0  
Month to date cooling degree days 0  
Year to date cooling degree days 450  
Moisture
Dew Point 45°F / 7°C   
Average Humidity 100    
Maximum Humidity 100    
Minimum Humidity 99    
Precipitation
Precipitation 0.18 in / 4.57 cm 0.09 in / 2.29 cm 0.89 in / 2.26 cm (1882)
Month to date precipitation 2.30  
Year to date precipitation 14.26  
Snow
Snow 0.00 in / 0.00 cm 0.40 in / 1.02 cm 6.10 in / 15.49 cm (1975)
Month to date snowfall 7.4  
Since 1 July snowfall 7.5  
Since 1 September snowfall 7.5  
Snow Depth in / cm   
Wind
Wind Speed 8 mph / 13 km/h   
Max Wind Speed 21 mph / 34 km/h   
Max Gust Speed 24 mph / 39 km/h   
Visibility 10 miles / 16 kilometers   
Events Rain   

Key: T is trace of precipitation, MM is missing value
Source: NWS Daily Summary
Time(PST)TemperatureDew PointHumidity Pressure Visibility Wind DirectionWind SpeedGust SpeedPrecipitationEvents Conditions
12:28 AM 44.6°F / 7.0°C 44.6°F / 7.0°C 100% 29.60 in / 1002.3 hPa 10.0 miles / 16.1 kilometers SE 5.8 mph / 9.3 km/h - N/A Rain Light Rain
12:38 AM 44.6°F / 7.0°C 44.6°F / 7.0°C 100% 29.59 in / 1001.9 hPa 10.0 miles / 16.1 kilometers SE 5.8 mph / 9.3 km/h - N/A Rain Light Rain
12:43 AM 44.6°F / 7.0°C 44.6°F / 7.0°C 100% 29.59 in / 1001.9 hPa 10.0 miles / 16.1 kilometers SE 5.8 mph / 9.3 km/h - N/A Rain Light Rain
12:58 AM 43.7°F / 6.5°C 43.7°F / 6.5°C 100% 29.62 in / 1002.8 hPa 10.0 miles / 16.1 kilometers SE 8.1 mph / 13.0 km/h - 0.01 in / 0.3 cm Rain Light Rain
1:53 AM 44.6°F / 7.0°C 44.6°F / 7.0°C 100% 29.56 in / 1000.9 hPa 10.0 miles / 16.1 kilometers SE 10.4 mph / 16.7 km/h - N/A Rain Light Rain
1:58 AM 43.9°F / 6.6°C 43.9°F / 6.6°C 100% 29.58 in / 1001.5 hPa 10.0 miles / 16.1 kilometers SE 10.4 mph / 16.7 km/h - 0.00 in / 0.0 cm Rain Light Rain
2:03 AM 44.6°F / 7.0°C 44.6°F / 7.0°C 100% 29.56 in / 1000.9 hPa 10.0 miles / 16.1 kilometers SSE 10.4 mph / 16.7 km/h - N/A Rain Light Rain
2:06 AM 44.6°F / 7.0°C 44.6°F / 7.0°C 100% 29.56 in / 1000.9 hPa 10.0 miles / 16.1 kilometers SSE 10.4 mph / 16.7 km/h - N/A   Mostly Cloudy
2:09 AM 44.6°F / 7.0°C 44.6°F / 7.0°C 100% 29.56 in / 1000.9 hPa 10.0 miles / 16.1 kilometers SSE 12.7 mph / 20.4 km/h 18.4 mph / 29.6 km/h N/A Rain Light Rain
2:52 AM 44.6°F / 7.0°C 44.6°F / 7.0°C 100% 29.54 in / 1000.2 hPa 10.0 miles / 16.1 kilometers SSE 11.5 mph / 18.5 km/h - N/A   Overcast
2:58 AM 43.9°F / 6.6°C 43.9°F / 6.6°C 100% 29.57 in / 1001.2 hPa 10.0 miles / 16.1 kilometers SSE 10.4 mph / 16.7 km/h - 0.00 in / 0.0 cm   Overcast
3:07 AM 44.6°F / 7.0°C 44.6°F / 7.0°C 100% 29.53 in / 999.9 hPa 10.0 miles / 16.1 kilometers SSE 10.4 mph / 16.7 km/h - N/A Rain Light Rain
3:52 AM 44.6°F / 7.0°C 44.6°F / 7.0°C 100% 29.53 in / 999.9 hPa 10.0 miles / 16.1 kilometers SSE 9.2 mph / 14.8 km/h - N/A Rain Light Rain
3:57 AM 44.6°F / 7.0°C 44.6°F / 7.0°C 100% 29.53 in / 999.9 hPa 10.0 miles / 16.1 kilometers SSE 9.2 mph / 14.8 km/h - N/A Rain Light Rain
3:58 AM 43.7°F / 6.5°C 43.7°F / 6.5°C 100% 29.56 in / 1000.8 hPa 10.0 miles / 16.1 kilometers SSE 8.1 mph / 13.0 km/h - 0.02 in / 0.5 cm Rain Light Rain
4:03 AM 44.6°F / 7.0°C 44.6°F / 7.0°C 100% 29.53 in / 999.9 hPa 10.0 miles / 16.1 kilometers SSE 9.2 mph / 14.8 km/h - N/A Rain Light Rain
4:18 AM 44.6°F / 7.0°C 44.6°F / 7.0°C 100% 29.53 in / 999.9 hPa 10.0 miles / 16.1 kilometers SSE 6.9 mph / 11.1 km/h - N/A   Overcast
4:20 AM 44.6°F / 7.0°C 44.6°F / 7.0°C 100% 29.53 in / 999.9 hPa 10.0 miles / 16.1 kilometers SSE 6.9 mph / 11.1 km/h - N/A Rain Light Rain
4:24 AM 44.6°F / 7.0°C 44.6°F / 7.0°C 100% 29.53 in / 999.9 hPa 10.0 miles / 16.1 kilometers SSE 6.9 mph / 11.1 km/h - N/A Rain Light Rain
4:34 AM 42.8°F / 6.0°C 42.8°F / 6.0°C 100% 29.52 in / 999.5 hPa 10.0 miles / 16.1 kilometers South 6.9 mph / 11.1 km/h - N/A Rain Light Rain
4:42 AM 42.8°F / 6.0°C 42.8°F / 6.0°C 100% 29.53 in / 999.9 hPa 10.0 miles / 16.1 kilometers South 4.6 mph / 7.4 km/h - N/A   Overcast
4:47 AM 42.8°F / 6.0°C 42.8°F / 6.0°C 100% 29.52 in / 999.5 hPa 10.0 miles / 16.1 kilometers SSE 4.6 mph / 7.4 km/h - N/A Rain Light Rain
4:57 AM 42.8°F / 6.0°C 42.8°F / 6.0°C 100% 29.53 in / 999.9 hPa 10.0 miles / 16.1 kilometers SSE 5.8 mph / 9.3 km/h - N/A   Overcast
4:58 AM 43.3°F / 6.3°C 43.3°F / 6.3°C 100% 29.56 in / 1000.8 hPa 10.0 miles / 16.1 kilometers SSE 5.8 mph / 9.3 km/h - 0.01 in / 0.3 cm   Overcast
5:09 AM 42.8°F / 6.0°C 42.8°F / 6.0°C 100% 29.53 in / 999.9 hPa 10.0 miles / 16.1 kilometers SSE 4.6 mph / 7.4 km/h - N/A Rain Light Rain
5:19 AM 42.8°F / 6.0°C 42.8°F / 6.0°C 100% 29.52 in / 999.5 hPa 10.0 miles / 16.1 kilometers South 4.6 mph / 7.4 km/h - N/A Rain Light Rain
5:49 AM 44.6°F / 7.0°C 44.6°F / 7.0°C 100% 29.53 in / 999.9 hPa 8.0 miles / 12.9 kilometers South 5.8 mph / 9.3 km/h - N/A Rain Light Rain
5:58 AM 43.9°F / 6.6°C 43.9°F / 6.6°C 100% 29.56 in / 1000.8 hPa 6.0 miles / 9.7 kilometers SSE 8.1 mph / 13.0 km/h - 0.02 in / 0.5 cm Rain Light Rain
6:07 AM 44.6°F / 7.0°C 44.6°F / 7.0°C 100% 29.53 in / 999.9 hPa 9.0 miles / 14.5 kilometers SSE 6.9 mph / 11.1 km/h - N/A Rain Light Rain
6:12 AM 44.6°F / 7.0°C 44.6°F / 7.0°C 100% 29.52 in / 999.5 hPa 10.0 miles / 16.1 kilometers SSE 6.9 mph / 11.1 km/h - N/A Rain Light Rain
6:15 AM 44.6°F / 7.0°C 44.6°F / 7.0°C 100% 29.52 in / 999.5 hPa 10.0 miles / 16.1 kilometers SSE 8.1 mph / 13.0 km/h - N/A   Overcast
6:58 AM 43.3°F / 6.3°C 43.3°F / 6.3°C 100% 29.56 in / 1001.0 hPa 10.0 miles / 16.1 kilometers SSE 8.1 mph / 13.0 km/h - 0.00 in / 0.0 cm   Overcast
7:58 AM 43.3°F / 6.3°C 43.3°F / 6.3°C 100% 29.57 in / 1001.2 hPa 10.0 miles / 16.1 kilometers SSE 9.2 mph / 14.8 km/h - N/A   Overcast
8:58 AM 44.6°F / 7.0°C 44.6°F / 7.0°C 100% 29.56 in / 1001.0 hPa 10.0 miles / 16.1 kilometers SSE 8.1 mph / 13.0 km/h - N/A   Overcast
9:58 AM 46.0°F / 7.8°C 46.0°F / 7.8°C 100% 29.58 in / 1001.5 hPa 10.0 miles / 16.1 kilometers South 8.1 mph / 13.0 km/h - 0.01 in / 0.3 cm   Overcast
10:11 AM 46.4°F / 8.0°C 46.4°F / 8.0°C 100% 29.55 in / 1000.6 hPa 10.0 miles / 16.1 kilometers South 8.1 mph / 13.0 km/h - N/A Rain Light Rain
10:35 AM 46.4°F / 8.0°C 46.4°F / 8.0°C 100% 29.55 in / 1000.6 hPa 10.0 miles / 16.1 kilometers South 10.4 mph / 16.7 km/h - N/A Rain Light Rain
10:58 AM 46.4°F / 8.0°C 46.4°F / 8.0°C 100% 29.59 in / 1001.9 hPa 10.0 miles / 16.1 kilometers South 8.1 mph / 13.0 km/h - 0.00 in / 0.0 cm Rain Light Rain
11:26 AM 46.4°F / 8.0°C 46.4°F / 8.0°C 100% 29.55 in / 1000.6 hPa 10.0 miles / 16.1 kilometers South 11.5 mph / 18.5 km/h - N/A   Overcast
11:58 AM 48.4°F / 9.1°C 48.4°F / 9.1°C 100% 29.56 in / 1001.0 hPa 10.0 miles / 16.1 kilometers South 12.7 mph / 20.4 km/h - 0.01 in / 0.3 cm   Mostly Cloudy
12:38 PM 48.2°F / 9.0°C 48.2°F / 9.0°C 100% 29.55 in / 1000.6 hPa 10.0 miles / 16.1 kilometers SSW 13.8 mph / 22.2 km/h 19.6 mph / 31.5 km/h N/A   Mostly Cloudy
12:53 PM 50.0°F / 10.0°C 50.0°F / 10.0°C 100% 29.55 in / 1000.6 hPa 10.0 miles / 16.1 kilometers SSW 13.8 mph / 22.2 km/h - N/A   Scattered Clouds
12:58 PM 49.3°F / 9.6°C 49.3°F / 9.6°C 100% 29.57 in / 1001.4 hPa 10.0 miles / 16.1 kilometers SSW 15.0 mph / 24.1 km/h - N/A   Scattered Clouds
1:58 PM 48.9°F / 9.4°C 48.9°F / 9.4°C 100% 29.60 in / 1002.4 hPa 10.0 miles / 16.1 kilometers SSW 16.1 mph / 25.9 km/h 23.0 mph / 37.0 km/h N/A   Scattered Clouds
2:03 PM 48.2°F / 9.0°C 48.2°F / 9.0°C 100% 29.58 in / 1001.6 hPa 10.0 miles / 16.1 kilometers SSW 16.1 mph / 25.9 km/h 23.0 mph / 37.0 km/h N/A   Mostly Cloudy
2:23 PM 48.2°F / 9.0°C 48.2°F / 9.0°C 100% 29.58 in / 1001.6 hPa 10.0 miles / 16.1 kilometers SSW 16.1 mph / 25.9 km/h 24.2 mph / 38.9 km/h N/A   Scattered Clouds
2:58 PM 47.1°F / 8.4°C 47.1°F / 8.4°C 100% 29.61 in / 1002.7 hPa 10.0 miles / 16.1 kilometers South 8.1 mph / 13.0 km/h - N/A   Clear
3:58 PM 44.6°F / 7.0°C 44.6°F / 7.0°C 100% 29.64 in / 1003.6 hPa 10.0 miles / 16.1 kilometers SSE 8.1 mph / 13.0 km/h - N/A   Clear
4:58 PM 44.1°F / 6.7°C 44.1°F / 6.7°C 100% 29.63 in / 1003.3 hPa 10.0 miles / 16.1 kilometers SSE 6.9 mph / 11.1 km/h - N/A   Mostly Cloudy
5:58 PM 42.8°F / 6.0°C 42.8°F / 6.0°C 100% 29.63 in / 1003.3 hPa 10.0 miles / 16.1 kilometers SSE 6.9 mph / 11.1 km/h - N/A   Partly Cloudy
6:03 PM 42.8°F / 6.0°C 42.8°F / 6.0°C 100% 29.60 in / 1002.3 hPa 10.0 miles / 16.1 kilometers SSE 5.8 mph / 9.3 km/h - N/A   Scattered Clouds
6:22 PM 44.6°F / 7.0°C 44.6°F / 7.0°C 100% 29.60 in / 1002.3 hPa 10.0 miles / 16.1 kilometers SSE 6.9 mph / 11.1 km/h - N/A   Overcast
6:58 PM 43.5°F / 6.4°C 43.5°F / 6.4°C 100% 29.63 in / 1003.4 hPa 10.0 miles / 16.1 kilometers South 6.9 mph / 11.1 km/h - 0.00 in / 0.0 cm   Overcast
7:18 PM 42.8°F / 6.0°C 42.8°F / 6.0°C 100% 29.60 in / 1002.3 hPa 10.0 miles / 16.1 kilometers South 8.1 mph / 13.0 km/h - N/A Rain Light Rain
7:50 PM 44.6°F / 7.0°C 44.6°F / 7.0°C 100% 29.59 in / 1001.9 hPa 10.0 miles / 16.1 kilometers SSE 6.9 mph / 11.1 km/h - N/A   Overcast
7:52 PM 44.6°F / 7.0°C 44.6°F / 7.0°C 100% 29.59 in / 1001.9 hPa 10.0 miles / 16.1 kilometers SSE 6.9 mph / 11.1 km/h - N/A Rain Light Rain
7:58 PM 44.2°F / 6.8°C 44.2°F / 6.8°C 100% 29.62 in / 1002.9 hPa 10.0 miles / 16.1 kilometers SE 5.8 mph / 9.3 km/h - 0.00 in / 0.0 cm Rain Light Rain
8:01 PM 44.6°F / 7.0°C 44.6°F / 7.0°C 100% 29.59 in / 1001.9 hPa 10.0 miles / 16.1 kilometers SE 5.8 mph / 9.3 km/h - N/A   Overcast
8:58 PM 43.5°F / 6.4°C 43.3°F / 6.3°C 99% 29.61 in / 1002.6 hPa 10.0 miles / 16.1 kilometers ESE 6.9 mph / 11.1 km/h - 0.00 in / 0.0 cm   Mostly Cloudy
9:58 PM 44.1°F / 6.7°C 44.1°F / 6.7°C 100% 29.60 in / 1002.4 hPa 10.0 miles / 16.1 kilometers South 4.6 mph / 7.4 km/h - N/A   Overcast
10:31 PM 42.8°F / 6.0°C 42.8°F / 6.0°C 100% 29.58 in / 1001.6 hPa 10.0 miles / 16.1 kilometers South 6.9 mph / 11.1 km/h - N/A Rain Light Rain
10:45 PM 44.6°F / 7.0°C 44.6°F / 7.0°C 100% 29.59 in / 1001.9 hPa 9.0 miles / 14.5 kilometers South 15.0 mph / 24.1 km/h - N/A Rain Light Rain
10:58 PM 44.1°F / 6.7°C 44.1°F / 6.7°C 100% 29.59 in / 1002.0 hPa 10.0 miles / 16.1 kilometers South 20.7 mph / 33.3 km/h - 0.02 in / 0.5 cm Rain Light Rain
11:13 PM 44.6°F / 7.0°C 44.6°F / 7.0°C 100% 29.59 in / 1001.9 hPa 9.0 miles / 14.5 kilometers South 16.1 mph / 25.9 km/h - N/A Rain Heavy Rain
11:48 PM 42.8°F / 6.0°C 42.8°F / 6.0°C 100% 29.57 in / 1001.2 hPa 10.0 miles / 16.1 kilometers SSE 10.4 mph / 16.7 km/h - N/A Rain Light Rain
11:49 PM 42.8°F / 6.0°C 42.8°F / 6.0°C 100% 29.58 in / 1001.6 hPa 10.0 miles / 16.1 kilometers SE 10.4 mph / 16.7 km/h - N/A   Overcast
11:58 PM 43.2°F / 6.2°C 43.2°F / 6.2°C 100% 29.60 in / 1002.4 hPa 10.0 miles / 16.1 kilometers SSE 10.4 mph / 16.7 km/h - 0.08 in / 2.0 cm   Mostly Cloudy
Moon Phase
Nov. 30 Dec. 06 Dec. 13 Dec. 20 Dec. 28
Sunrise:07:17 AM (PST) Moon Rise:06:01 PM (PST)11/30
Sunset:04:01 PM (PST) Moon Set:08:52 AM (PST)11/30

Copyright © 2014 The Weather Underground, Inc.